COSMOS 2251 DEB, 34303

Orbit data source: Space-Track

COSMOS 2251 DEB, 34303 is space debris in LEO originally from a launch on Wed, 16 Jun 1993 UTC launched from the Plesetsk Missile And Space Complex (PKMTR). The debris from Iridium 33, an American commercial communications satellite, has been tracked extensively since its accidental collision with the defunct Russian satellite Cosmos 2251 in 2009. This event, occurring at high speed in low Earth orbit (LEO), generated thousands of pieces of space debris, significantly increasing the risk of further collisions. The Iridium 33 debris cloud has impacted space traffic management and orbital debris mitigation strategies, making it a subject of ongoing study in space situational awareness.

Loading next visibility...
Identifier
34303, 1993-036MZ
Orbit
LEO
Country
Flag of CISCIS
Related business
Manufacturer
Unknown
Mission
Spacecraft
Bus & Motor
Unknown
Mass
Unknown
Launch date (UTC)
1993-06-16 (33 years ago)
Launch vehicle
Unknown
Launch site
Plesetsk Missile And Space Complex (PKMTR)
Object type
Payload
Rocket body
Debris
Shape & HBR
Unknown shape, 0.1 m
Radar Cross Section
Small (<0.1 m²)

Expand to show TLE details & history
Last TLE update: 11 hours ago

TLE from 11 hours ago
0 COSMOS 2251 DEB
1 34303U 93036MZ  26035.49919875  .00005811  00000-0  11896-2 0  9994
2 34303  74.0045 186.0702 0137064 311.7061 108.2424 14.55209584887444
Epoch: 2026-02-04T11:58Z
TLE epoch observation values (Epoch: 2026-02-04T11:58:50.771Z)
Latitude
57.69929°
Longitude
-101.49716°
Altitude
749.646 km
Speed
7.469 km/s
True Right ascension
14h 11m 31s
True Declination
57° 32' 37"
Sunlit
Object was in daylight at epoch
Visualization orbit readout
Latitude
Unknown
Longitude
Unknown
Altitude
Unknown
Speed
Unknown
Apparent Right ascension
Unknown
Apparent Declination
Unknown
Sunlit
N/A
Visualization observer readout
Local Sidereal Time
01:00:19
Azimuth
Unknown
Elevation
Unknown
Doppler factor
Unknown
Orbital elements
Apogee altitude
803.391 km
Perigee altitude
609.187 km
Semi-major axis
7,084.426 km
Eccentricity
0.01371
Inclination
74.0045°
RAAN
186.0702°
Arg. of periapsis
311.7061°
True anomaly
109.72597°
Mean anomaly
108.2424°
Eccentric anomaly
108.985°
Mean motion
3.63987 °/min
Orbital period
98.9 mins
BSTAR
0.0011896
Loading maneuver chart data...
Computing Atmospheric mass density...

Documentation

Showing up to 5 results
|